Warning: Javascript must be enabled to use all the features on this page!


Page Loading - Please Wait...

Click to hideNews Bulletins

Peak Streamflow for Idaho

Click to hide state-specific text

USGS 13269000 SNAKE RIVER AT WEISER ID

Washington County, Idaho
Hydrologic Unit Code 17050201
Latitude  44°14'44", Longitude 116°58'51" NAD83
Drainage area 69,200  square miles
Contributing drainage area 69,200  square miles
Gage datum 2,086.64 feet above NGVD29
Output formats
Table
Graph
Tab-separated file
peakfq (watstore) format
Reselect output format
Water
Year
Date Gage
Height
(feet)
Stream-
flow
(cfs)
1910 1910-03-03   120,0002,6
1911 1911-06-21   67,2001,6
1912 1912-06-15   73,8001,6
1913 1913-05-31   66,5001,6
1914 1914-04-17   50,8001,6
1915 1914-11-18 6.40 28,6001,6
1916 1916-03-22 10.50 58,4001,6
1917 1917-05-28 11.90 70,4001,6
1918 1918-06-24 11.00 62,4001,6
1919 1919-04-05 9.90 53,8001,6
1920 1920-05-24 7.612 36,8001,6
1921 1921-05-23 13.60 83,1001,6
1922 1922-05-27 11.632 67,1001,6
1923 1923-06-13 8.44 41,5001,6
1924 1924-02-09 6.60 28,9001,6
1925 1925-02-06 10.902 63,1001,6
1926 1926-02-07 7.30 34,7001,6
1927 1927-06-17 10.27 56,3001,6
1928 1928-05-12 11.35 62,3001,6
1929 1929-04-15 7.30 31,3001,6
1930 1929-12-17 5.302 21,1001,6
1931 1931-03-19 4.60 19,0001,6
1932 1932-03-20 9.90 53,3001,6
1933 1933-06-13 8.402 39,5001,6
1934 1934-01-03 5.15 20,5006
1935 1935-06-03 5.83 24,3006
1936 1936-04-25 11.18 60,7006
1937 1937-04-16 8.402 36,9006
1938 1938-05-03 12.25 67,2006
1939 1939-03-26 8.84 39,5006
1940 1940-04-01 9.79 49,6006
1941 1941-06-09 6.74 28,0006
1942 1942-06-01 -0.42 44,3006
1943 1943-04-21 12.76 69,3006
1944 1944-06-17 8.54 37,0006
1945 1945-06-14 9.48 44,1006
1946 1946-04-18 11.23 57,3006
1947 1947-06-11 9.46 44,6006
1948 1948-06-04 10.51 48,3006
1949 1949-03-19 8.01 34,3006
1950 1950-04-14 9.13 40,4006
1951 1951-05-17 9.92 45,9006
1952 1952-04-29 14.67 84,5006
1953 1953-06-14 11.42 56,9006
1954 1954-04-15 7.22 30,0006
1955 1955-04-23 6.83 28,0006
1956 1956-06-06 11.28 56,4006
1957 1957-05-24 12.61 66,4006
1958 1958-04-19 9.40 43,1006
1959 1959-09-16 5.68 21,6006
1960 1960-04-10 7.40 31,1006
1961 1961-02-01 5.87 22,2006
1962 1962-02-14 7.71 33,1006
1963 1963-02-03 10.462 51,0006
1964 1964-06-21 9.56 51,3006
1965 1964-12-25 12.62 72,4006
1966 1966-03-09 5.50 24,2006
1967 1967-06-22 7.14 33,3006
1968 1968-02-24 7.22 34,1006
1969 1969-04-07 9.53 49,3006
1970 1970-05-26 8.83 44,7006
1971 1971-01-20 11.59 64,0006
1972 1972-03-14 11.38 63,0006
1973 1973-04-18 6.282 28,5006
1974 1974-04-02 10.742 57,6006
1975 1975-05-16 10.45 57,0006
1976 1976-04-14 9.79 52,6006
1977 1976-12-05 4.93 21,3006
1978 1978-04-28 8.86 45,6006
1979 1979-02-14 7.622 36,5006
1980 1980-06-06 9.37 48,0006
1981 1981-06-13 8.05 39,3006
1982 1982-02-17 12.32 69,6006
1983 1983-05-07 11.40 62,6006
1984 1984-04-20 13.66 80,0006
1985 1985-04-12 8.57 42,0006
1986 1986-02-25 13.46 78,5006
1987 1986-11-01 5.98 25,9006
1988 1988-06-03 3.92 14,9006
1989 1989-03-12 8.15 39,0006
1990 1990-06-02 5.18 21,4006
1991 1991-05-18 4.25 16,5006
1992 1992-02-22 4.40 17,1006
1993 1993-03-19 10.38 54,2006
1994 1994-03-03 4.29 16,9006
1995 1995-06-12 8.47 41,6006
1996 1996-04-11 10.25 54,4006
1997 1997-01-03 14.49 84,1006
1998 1998-05-28 13.78 78,7006
1999 1999-03-27 10.03 51,7006
2000 2000-02-28 7.30 33,9006
2001 2000-10-13   16,0001,6
2002 2002-04-15 6.31 27,9006
2003 2003-05-31 5.91 25,5006
2004 2004-05-29 4.86 19,5006
2005 2005-05-20 7.20 33,6006
2006 2006-04-24 11.95 67,2006
2007 2006-12-28 4.93 19,2006
2008 2008-05-22 7.64 35,5006
2009 2009-06-08 7.53 34,4006
2010 2010-06-06 8.82 42,8006
2011 2011-05-16 11.57 62,7006
2012 2012-04-28 8.50 40,2006
2013 2012-12-06 5.33 20,5006
2014 2014-03-11 7.36 32,7006
2015 2015-02-10 5.96 24,1006
2016 2016-03-14 6.33 26,2006
2017 2017-03-21 12.53 70,0006
2018 2018-05-29 8.09 37,0006
2019 2019-04-10 10.52 54,2006
2020 2020-05-27 5.88 23,6006
?
  Peak Gage-Height Qualification Codes.
?
  Peak Streamflow Qualification Codes.